Location: *
(34.0486°S, 61.7880°E)
Time: 16:20:36
(UTC+00:00)

USA 215 - Pass Details

Date: 01 April 2020
Orbit: 1098 x 1110 km, 123.0° (Epoch: 20 May)

Event Time Altitude Azimuth Distance (km) Brightness Sun altitude
Exits shadow 14:18:29 - 128° (SE) 3,942 5.7 -7.3°
Reaches altitude 10° 14:21:13 10° 119° (ESE) 2,988 5.0 -7.8°
Maximum altitude 14:27:10 36° 54° (NE) 1,693 3.9 -9.1°
Drops below altitude 10° 14:33:04 10° 350° (N) 2,956 5.6 -10.3°
Sets 14:35:46 0° 341° (NNW) 3,906 6.4 -10.8°
